Vertical_Velocity
-0 2 3 2 -3 -3 -1 4 8 7 1 -7 -7 -5 -0 5 4 1 2 11 10 2 -7 -10 -2 9 19 27 26 23 19 15 17 17 17 17 16 14 13 17 20 19 14 9 11 14 16 20 25 23 15 4 1 -0 0 1 3 3 2 1 1 1 0 -0 -2 -4 -4 -3 -5
16 18 17 13 4 2 4 8 8 3 -6 -18 -17 -10 0 9 2 -7 -11 -3 -8 -13 -15 -11 0 12 22 26 26 26 25 23 21 20 19 17 15 12 11 13 14 13 11 12 17 20 23 26 24 18 10 3 2 2 2 1 2 2 2 -0 -1 -1 -1 -1 -4 -5 -5 -4 -4
15 19 22 20 8 3 3 9 9 1 -10 -21 -19 -9 0 1 -9 -16 -20 -19 -22 -22 -15 -2 9 19 26 28 27 27 27 27 25 22 16 9 7 7 8 9 11 13 17 22 21 19 18 17 13 9 6 4 3 3 2 0 -1 -1 -1 -3 -4 -4 -4 -5 -7 -7 -5 -3 -3
5 9 15 19 12 5 2 3 3 -1 -7 -12 -5 -1 -3 -13 -21 -26 -29 -28 -26 -17 -4 10 20 26 28 27 24 22 22 24 24 23 19 14 13 14 16 21 28 34 38 37 31 23 15 11 7 5 3 1 1 0 -1 -2 -4 -4 -5 -6 -5 -4 -4 -6 -7 -6 -4 -1 -1
8 8 10 16 16 12 7 4 6 6 6 7 9 1 -13 -28 -32 -34 -32 -24 -10 2 12 18 23 24 23 19 16 16 20 28 36 35 29 22 22 25 29 33 37 41 43 38 32 23 14 8 4 1 -1 -3 -3 -3 -3 -4 -4 -4 -5 -6 -3 -2 -1 -2 -3 -3 -1 1 0
11 11 13 16 20 21 19 14 15 15 16 16 7 -9 -25 -33 -32 -28 -19 -3 12 18 20 21 22 22 20 18 18 23 30 37 36 29 22 21 21 18 14 10 12 17 22 23 17 10 5 1 -1 -4 -5 -6 -4 -4 -4 -3 -1 -1 -2 -1 1 2 3 4 1 1 2 3 2
8 6 6 7 10 12 12 12 13 13 11 5 -10 -19 -22 -19 -16 -13 -4 13 22 22 20 22 25 25 25 24 26 31 33 29 15 6 1 -3 -5 -6 -5 -3 1 4 5 4 3 0 -2 -4 -4 -4 -5 -5 -3 -3 -3 -2 1 3 4 4 3 4 5 5 1 0 1 2 1
6 4 3 2 5 5 3 -1 -3 -4 -3 1 -4 -11 -18 -19 -11 -4 4 14 17 17 19 24 28 26 23 21 24 23 18 8 -1 -7 -11 -14 -12 -8 -4 -2 1 2 2 -1 -0 -0 -1 -3 -1 -1 -2 -4 -2 -1 -1 1 4 7 7 7 4 3 2 2 -0 -1 0 1 0
5 4 3 2 4 4 2 -1 -7 -10 -7 2 6 2 -5 -12 -7 1 11 17 14 15 20 27 27 23 20 20 22 16 8 -1 -5 -9 -10 -9 -4 -1 -1 -3 -1 0 1 -0 1 1 1 0 1 0 -0 -1 1 1 1 3 7 8 8 5 3 1 -1 -2 -2 -1 -0 0 0
3 4 5 9 11 9 7 4 -1 -3 -3 1 6 8 6 2 1 4 10 14 15 19 26 34 32 27 25 27 25 18 9 2 -0 -2 -4 -5 -4 -4 -5 -5 -3 -1 0 0 0 0 1 1 1 1 1 1 3 3 3 4 7 8 6 2 2 1 0 -2 -2 -1 -0 -1 -1
0 1 4 10 14 15 14 13 10 6 5 8 10 12 12 10 8 8 8 7 10 18 27 35 36 33 30 28 24 18 9 2 0 -1 -1 -2 -4 -5 -5 -5 -4 -2 -1 -1 -1 -0 1 2 2 1 -0 -1 1 3 4 4 5 5 3 0 -0 0 1 -1 -3 -2 -1 -2 -2
1 1 2 7 11 13 15 18 17 15 14 16 18 18 15 12 9 9 8 5 7 12 19 25 29 27 22 16 14 10 5 0 -2 -3 -3 -3 -4 -4 -4 -3 -2 -1 0 -0 -0 1 2 2 0 -1 -2 -2 -0 2 5 5 4 3 1 -2 -2 -2 -1 -2 -4 -4 -3 -3 -3
-0 -1 -0 3 9 13 15 17 17 16 17 20 23 21 17 10 8 6 5 6 10 13 14 13 14 12 9 4 1 0 -0 -1 -3 -5 -6 -6 -5 -3 -1 1 2 3 3 2 1 2 2 -0 -3 -3 -2 -1 1 3 4 4 3 1 -1 -4 -4 -4 -4 -4 -5 -5 -4 -4 -3
-2 -3 -3 -0 8 14 17 18 16 14 15 19 22 19 13 7 4 2 3 7 13 14 12 6 2 0 -0 -2 -3 -3 -2 -3 -5 -6 -7 -6 -3 0 3 4 3 3 3 2 0 0 -0 -2 -4 -3 -1 2 3 3 3 2 1 -1 -4 -5 -5 -5 -6 -6 -5 -5 -4 -3 -3
-4 -4 -3 -0 7 12 16 17 13 12 12 16 15 12 8 4 0 0 3 7 9 8 6 3 -1 -4 -6 -6 -4 -3 -3 -5 -7 -7 -6 -4 -0 3 4 3 2 2 1 0 -1 -2 -3 -4 -4 -3 -0 3 3 2 1 -0 -1 -3 -5 -6 -6 -6 -6 -6 -5 -4 -3 -2 -2
-4 -5 -3 2 5 7 9 9 7 7 8 11 9 7 6 4 1 2 4 6 4 2 -0 -1 -4 -7 -9 -9 -6 -4 -4 -4 -5 -5 -3 -0 2 3 2 0 -1 -1 -1 -1 -3 -4 -6 -6 -5 -3 -1 1 1 0 -1 -2 -3 -4 -5 -6 -6 -5 -5 -5 -4 -3 -2 -2 -1
-4 -5 -3 2 3 4 3 2 -0 1 3 5 4 4 4 4 4 5 7 5 2 -0 -1 -3 -8 -10 -11 -10 -9 -6 -4 -1 -2 -1 1 3 2 1 -2 -4 -4 -4 -4 -4 -5 -6 -7 -8 -6 -4 -2 -0 -1 -1 -2 -3 -3 -4 -4 -5 -4 -4 -4 -4 -3 -3 -2 -2 -1
-3 -6 -6 -2 3 5 5 3 -2 -3 -3 -1 1 2 4 4 6 8 8 5 3 2 1 -3 -7 -9 -9 -8 -8 -6 -2 2 3 3 3 3 1 -2 -4 -6 -7 -6 -6 -6 -7 -8 -8 -8 -6 -5 -3 -1 -2 -2 -2 -2 -2 -2 -2 -2 -2 -2 -3 -3 -3 -2 -2 -1 -0
-5 -9 -10 -5 1 7 9 8 1 -5 -7 -5 -2 1 4 5 7 8 8 6 5 4 3 0 -4 -6 -7 -7 -6 -4 -0 4 6 5 3 1 -1 -3 -5 -7 -7 -7 -7 -7 -8 -8 -8 -7 -6 -4 -2 -1 -1 -1 -1 0 0 0 -1 -1 -1 -1 -2 -2 -2 -2 -1 -1 -1
-7 -12 -13 -9 -1 6 10 10 2 -5 -9 -9 -5 -0 3 5 6 7 7 6 5 4 3 3 -1 -5 -7 -7 -4 -1 2 5 6 6 3 -1 -2 -3 -4 -5 -5 -5 -6 -7 -7 -7 -7 -6 -5 -3 -2 -0 1 1 1 2 2 1 1 -1 -1 -1 -2 -2 -2 -2 -2 -2 -2
-7 -12 -15 -12 -3 3 7 7 1 -5 -10 -10 -6 -2 1 4 5 6 7 6 4 3 3 2 -2 -5 -7 -7 -3 0 3 3 5 5 3 -1 -1 -2 -2 -3 -2 -3 -4 -6 -5 -5 -5 -5 -4 -3 -1 1 2 2 2 2 3 2 1 -0 -1 -1 -2 -2 -2 -2 -2 -2 -2
-5 -8 -11 -10 -5 -0 3 3 -1 -5 -8 -8 -6 -3 -1 1 3 5 6 4 4 3 2 -0 -3 -5 -7 -7 -4 -1 1 2 4 4 2 -0 1 0 0 -0 0 -0 -2 -3 -3 -3 -4 -5 -5 -4 -2 0 1 2 2 2 3 2 1 0 -0 -1 -2 -3 -3 -2 -2 -2 -2
1 -0 -1 -3 -2 -2 -1 -2 -4 -5 -6 -5 -4 -3 -2 -1 1 3 4 4 4 3 1 -1 -3 -5 -6 -7 -5 -2 0 2 3 2 1 1 3 3 3 2 3 2 1 -1 -1 -2 -3 -5 -6 -5 -3 -1 1 1 1 2 2 2 2 1 -0 -1 -2 -3 -3 -2 -2 -2 -2
6 9 10 8 4 0 -3 -5 -5 -5 -5 -3 -2 -2 -2 -2 -1 0 2 3 4 3 1 -1 -4 -5 -7 -8 -5 -2 0 2 1 1 0 2 4 5 6 5 5 5 3 0 -0 -1 -3 -5 -6 -6 -4 -2 -0 0 1 2 3 3 2 1 -0 -1 -2 -3 -3 -2 -1 -1 -1
7 12 14 14 10 4 -1 -4 -3 -3 -3 -2 -1 0 1 0 -1 -1 -1 1 2 2 1 -1 -3 -5 -7 -7 -5 -2 1 2 2 1 2 3 6 7 8 7 6 4 2 1 0 -1 -4 -6 -6 -6 -4 -3 -1 1 2 3 3 3 2 0 -0 -1 -1 -2 -2 -2 -1 -0 0
-1 3 6 8 8 6 3 1 2 2 2 1 2 3 3 4 2 1 0 1 2 3 2 0 -2 -4 -5 -5 -3 -1 2 3 3 3 4 7 8 9 8 7 5 3 1 0 -0 -3 -5 -7 -6 -5 -4 -2 -0 2 3 4 3 3 2 0 -1 -1 -1 -0 -0 -0 -0 0 0
-11 -6 0 3 3 4 5 6 10 11 9 5 4 4 5 7 7 6 4 3 4 5 4 2 -1 -3 -3 -3 -0 2 3 4 4 5 7 9 9 8 7 4 3 1 0 -0 -1 -4 -6 -7 -6 -5 -3 -1 1 3 4 4 3 3 2 1 -0 -1 -0 0 0 0 0 0 -0
-11 -7 -2 3 2 2 4 9 13 12 9 5 4 5 8 12 13 11 9 7 7 7 5 2 -1 -2 -2 1 3 5 7 7 7 7 8 9 9 7 4 2 2 1 -0 -1 -2 -4 -6 -6 -5 -4 -2 0 2 3 4 5 4 3 2 1 -0 -0 -0 0 0 0 1 1 0
-9 -6 -2 2 -1 -1 1 6 6 4 2 2 4 7 10 14 15 14 12 10 9 7 4 -1 -3 -2 0 3 6 8 9 9 8 8 8 8 7 4 1 0 1 1 -0 -1 -2 -3 -5 -5 -4 -2 0 2 3 4 5 5 4 2 1 0 -0 -1 -0 -0 0 1 1 1 0
-7 -5 -3 -1 -3 -3 -2 -0 -1 -2 -2 0 3 7 10 11 13 14 14 13 11 7 3 -1 -1 0 2 4 7 10 10 9 7 6 6 5 3 0 -1 -1 1 1 0 -1 -1 -2 -3 -3 -2 0 2 3 4 4 4 3 3 2 1 -0 -1 -1 -1 -0 0 1 1 0 0
-5 -4 -4 -3 -3 -2 -2 -2 -2 -3 -3 -2 1 3 6 8 10 13 14 15 15 12 9 6 4 4 4 5 8 10 9 6 5 5 3 2 0 -1 -2 -1 2 2 1 -0 -0 -0 -1 -1 0 1 2 3 3 3 3 2 2 1 -0 -1 -1 -1 -1 -0 0 0 0 -0 -0
-3 -3 -3 -3 -2 -2 -1 0 -0 -2 -3 -4 -2 -1 2 6 10 15 19 21 21 17 13 9 7 6 5 5 7 7 7 6 5 4 2 1 -0 -1 -1 1 3 2 1 0 1 2 1 1 1 1 2 2 2 2 2 2 1 -0 -1 -1 -1 -1 -1 0 0 0 0 -0 -0
-1 -2 -1 -1 -1 -0 0 1 0 -1 -2 -3 -3 -2 0 5 11 17 22 25 22 18 13 9 8 7 5 3 4 4 5 5 5 3 2 0 -0 -0 1 3 3 2 1 1 2 3 3 2 1 1 1 1 1 1 1 1 0 -1 -1 -1 -1 -1 -0 0 0 0 0 -0 -1
6 4 3 3 3 2 1 -1 -2 -2 -2 -2 -2 -1 1 5 11 16 19 21 19 16 14 12 12 10 7 4 2 2 3 4 5 3 2 -0 -0 1 2 4 3 2 1 2 3 4 3 2 1 1 0 1 1 1 1 0 -0 -1 -1 -1 -1 -1 -0 0 0 0 -0 -0 -1
18 16 13 10 8 6 3 -1 -3 -3 -3 -2 -1 -0 2 6 9 13 16 18 17 15 15 15 15 14 10 6 2 2 3 4 4 3 1 -1 0 2 4 5 3 2 1 2 4 4 4 2 1 0 0 1 1 1 0 0 -1 -1 -1 -1 -1 -0 -0 -0 0 -0 -1 -1 -1
18 22 22 18 13 8 5 0 -3 -4 -4 -3 -2 0 3 6 9 12 15 18 16 14 13 14 15 14 11 5 2 2 3 5 4 2 0 -1 1 3 5 5 3 2 2 3 4 5 4 2 1 0 0 1 1 1 0 -0 -1 -1 -1 -1 -1 -1 -1 -0 -0 -1 -1 -1 -2
10 14 16 16 12 9 6 3 -1 -3 -3 -3 -1 1 4 8 10 13 15 18 17 15 13 13 14 13 9 3 -0 0 3 5 5 3 0 -1 2 4 5 5 3 2 2 3 5 5 4 2 1 0 1 2 2 1 0 -0 -1 -1 -1 -0 -1 -1 -1 -1 -1 -1 -1 -2 -2
7 6 5 5 6 7 7 5 2 -1 -3 -2 1 3 6 9 11 13 15 18 19 16 13 12 13 10 6 -0 -1 1 5 8 5 2 -1 -1 2 4 5 5 3 2 3 4 5 5 3 2 0 0 1 2 2 1 0 -0 -1 -1 -1 -1 -1 -1 -2 -2 -1 -1 -2 -2 -2
9 5 2 -0 2 5 7 7 3 0 -1 0 3 5 6 9 10 13 16 20 20 15 10 7 6 5 2 0 1 4 7 8 5 1 -1 -0 2 4 5 5 3 3 3 5 5 4 3 1 1 1 1 2 1 1 0 -0 -0 -1 -1 -1 -1 -2 -2 -2 -1 -1 -1 -2 -2
6 4 0 -4 -3 1 6 9 7 4 2 2 3 3 4 5 7 11 15 21 20 15 9 5 4 4 3 2 3 5 7 7 4 0 -1 -0 2 4 5 5 4 3 4 5 5 4 2 1 1 1 1 2 1 1 0 -0 -0 -1 -1 -2 -2 -2 -2 -2 -2 -1 -1 -1 -1
-1 -2 -5 -8 -8 -5 0 7 10 9 7 4 3 2 2 4 6 10 14 19 19 15 11 8 7 5 3 2 3 5 7 6 2 -0 -1 -0 2 3 4 4 4 4 4 5 4 3 1 0 0 1 1 1 1 1 0 -0 -0 -1 -2 -2 -2 -2 -2 -2 -2 -1 -1 -0 -1
Height
2990 2990 2991 2991 2991 2992 2993 2994 2994 2993 2993 2993 2995 2997 2998 2997 2995 2993 2993 2996 2997 2997 2998 3000 3002 3005 3006 3008 3009 3009 3010 3010 3010 3010 3010 3010 3010 3010 3010 3012 3013 3014 3016 3018 3018 3019 3021 3023 3025 3025 3026 3028 3031 3034 3036 3038 3039 3041 3042 3043 3045 3045 3046 3047 3047 3048 3048 3049 3049
2988 2988 2989 2988 2989 2989 2990 2991 2992 2991 2991 2992 2994 2996 2995 2993 2990 2990 2992 2994 2995 2996 2997 3000 3002 3003 3004 3005 3006 3006 3007 3007 3007 3006 3006 3006 3006 3007 3008 3008 3009 3011 3012 3013 3014 3016 3017 3019 3020 3021 3022 3025 3028 3031 3032 3034 3036 3037 3039 3041 3042 3043 3044 3044 3045 3046 3046 3047 3047
2985 2985 2985 2986 2986 2987 2987 2989 2989 2990 2990 2991 2992 2992 2991 2989 2988 2989 2991 2993 2993 2995 2997 2999 3000 3001 3002 3002 3002 3002 3003 3002 3002 3002 3002 3003 3005 3006 3006 3005 3005 3005 3006 3007 3009 3011 3013 3014 3016 3017 3020 3022 3025 3028 3030 3031 3033 3035 3037 3039 3040 3041 3042 3042 3043 3043 3044 3045 3045
2983 2982 2982 2983 2984 2985 2985 2987 2987 2988 2989 2989 2988 2987 2987 2987 2987 2989 2990 2992 2992 2994 2996 2997 2998 2999 2998 2999 2999 2999 2999 2998 2998 2998 2999 3001 3003 3004 3003 3002 3001 3001 3002 3004 3006 3008 3010 3012 3014 3016 3018 3021 3024 3026 3028 3030 3031 3033 3034 3036 3037 3038 3039 3040 3041 3041 3042 3042 3043
2983 2982 2982 2982 2983 2984 2985 2986 2987 2987 2987 2987 2985 2984 2984 2985 2987 2987 2988 2989 2990 2992 2993 2995 2996 2995 2995 2995 2995 2995 2994 2994 2994 2994 2996 2998 2999 2999 3000 3000 3002 3004 3006 3008 3009 3011 3012 3013 3015 3016 3018 3020 3022 3024 3026 3027 3029 3030 3032 3033 3035 3036 3037 3038 3038 3039 3040 3041 3041
2981 2980 2980 2980 2980 2981 2983 2984 2984 2985 2984 2983 2982 2983 2983 2984 2984 2985 2985 2986 2987 2989 2991 2992 2992 2992 2992 2992 2991 2990 2989 2988 2988 2991 2994 2996 2997 2998 3000 3003 3006 3008 3009 3011 3012 3013 3014 3015 3015 3016 3017 3019 3020 3022 3024 3026 3027 3028 3029 3031 3032 3033 3035 3036 3036 3037 3038 3039 3039
2980 2979 2979 2977 2977 2977 2978 2979 2980 2981 2981 2981 2982 2983 2983 2983 2983 2983 2983 2984 2985 2987 2989 2990 2990 2989 2989 2989 2988 2987 2986 2987 2990 2994 2997 3000 3001 3002 3004 3006 3007 3007 3008 3009 3011 3012 3013 3013 3014 3015 3016 3017 3019 3020 3022 3023 3025 3026 3027 3029 3030 3031 3032 3033 3034 3035 3036 3037 3038
2978 2978 2977 2977 2975 2975 2976 2977 2978 2979 2980 2981 2982 2983 2983 2983 2983 2983 2983 2984 2985 2986 2987 2987 2988 2988 2988 2988 2988 2987 2988 2991 2994 2998 3001 3003 3003 3004 3004 3005 3005 3006 3007 3008 3009 3010 3011 3012 3013 3014 3015 3016 3018 3019 3021 3022 3023 3025 3026 3027 3028 3029 3030 3031 3032 3033 3035 3035 3036
2974 2975 2975 2975 2974 2973 2973 2975 2976 2978 2979 2980 2981 2982 2982 2982 2982 2982 2983 2984 2984 2984 2985 2986 2986 2987 2987 2987 2987 2988 2990 2993 2996 2998 3000 3000 3001 3001 3002 3002 3003 3004 3005 3007 3008 3009 3010 3011 3012 3013 3015 3016 3017 3018 3020 3021 3022 3023 3024 3026 3027 3028 3029 3030 3031 3032 3033 3033 3034
2970 2971 2972 2972 2971 2971 2971 2972 2973 2974 2976 2977 2978 2978 2979 2980 2980 2981 2982 2982 2982 2982 2983 2983 2984 2985 2986 2987 2987 2988 2991 2993 2995 2996 2996 2997 2997 2998 2999 3000 3002 3003 3004 3005 3007 3008 3009 3011 3012 3013 3014 3015 3017 3018 3019 3020 3021 3022 3023 3025 3026 3027 3027 3028 3029 3030 3031 3032 3032
2967 2967 2968 2968 2967 2967 2967 2968 2969 2971 2972 2974 2975 2976 2976 2977 2978 2978 2979 2979 2980 2980 2981 2982 2983 2984 2985 2986 2987 2988 2990 2992 2992 2993 2993 2994 2995 2996 2997 2999 3000 3002 3003 3004 3006 3007 3008 3010 3011 3012 3013 3014 3015 3017 3018 3019 3020 3021 3022 3023 3024 3025 3026 3027 3028 3028 3029 3029 3030
2965 2965 2965 2965 2964 2964 2964 2965 2966 2967 2969 2970 2972 2972 2973 2974 2975 2976 2977 2977 2978 2979 2980 2981 2982 2983 2985 2986 2987 2987 2988 2989 2990 2991 2992 2993 2994 2995 2996 2998 2999 3001 3002 3003 3004 3006 3007 3008 3010 3011 3012 3013 3014 3015 3017 3018 3019 3020 3021 3022 3023 3024 3024 3025 3026 3027 3027 3027 3028
2962 2963 2963 2962 2962 2961 2962 2962 2964 2965 2966 2967 2968 2969 2970 2971 2972 2974 2975 2976 2977 2978 2979 2980 2981 2982 2984 2985 2986 2986 2987 2987 2989 2990 2991 2992 2993 2994 2995 2997 2998 2999 3000 3002 3003 3004 3006 3007 3008 3009 3011 3012 3013 3014 3016 3017 3017 3018 3019 3020 3021 3022 3023 3023 3024 3025 3025 3026 3026
2959 2960 2960 2961 2961 2960 2960 2960 2962 2962 2963 2965 2966 2967 2967 2969 2971 2972 2973 2975 2976 2977 2977 2979 2980 2981 2982 2983 2984 2985 2985 2987 2988 2989 2990 2991 2992 2993 2994 2995 2996 2997 2998 3000 3001 3002 3004 3005 3007 3008 3010 3011 3012 3013 3014 3015 3016 3017 3018 3019 3020 3021 3021 3022 3022 3023 3023 3024 3024
2955 2957 2958 2959 2959 2959 2959 2959 2959 2960 2962 2963 2964 2965 2966 2967 2969 2971 2972 2973 2974 2975 2976 2977 2978 2979 2980 2981 2982 2983 2985 2986 2987 2988 2989 2990 2991 2992 2993 2994 2994 2995 2997 2998 3000 3001 3002 3004 3005 3007 3008 3010 3011 3012 3013 3014 3015 3016 3017 3017 3018 3019 3020 3020 3021 3021 3022 3022 3022
2952 2954 2956 2957 2958 2958 2958 2958 2959 2959 2960 2961 2962 2964 2965 2966 2968 2969 2971 2972 2972 2973 2974 2975 2976 2977 2978 2979 2980 2982 2984 2985 2986 2987 2988 2989 2990 2991 2991 2992 2992 2993 2995 2997 2998 3000 3001 3002 3004 3005 3007 3008 3009 3011 3012 3012 3013 3014 3015 3016 3017 3017 3018 3018 3019 3019 3020 3020 3020
2949 2951 2953 2955 2957 2958 2958 2958 2958 2959 2959 2960 2961 2962 2963 2965 2966 2967 2969 2969 2970 2971 2972 2973 2974 2975 2977 2977 2979 2981 2982 2983 2984 2986 2987 2987 2988 2988 2989 2990 2991 2992 2994 2995 2997 2998 2999 3001 3002 3004 3005 3007 3008 3009 3010 3011 3012 3012 3013 3014 3015 3016 3016 3017 3017 3018 3018 3018 3018
2946 2947 2950 2952 2955 2957 2957 2958 2957 2958 2958 2959 2960 2961 2962 2963 2965 2966 2967 2967 2967 2969 2970 2971 2972 2974 2974 2976 2977 2978 2980 2982 2982 2984 2985 2986 2986 2986 2987 2988 2989 2991 2992 2994 2995 2997 2998 3000 3001 3002 3004 3005 3006 3007 3008 3009 3010 3011 3012 3012 3013 3014 3015 3015 3016 3017 3017 3017 3017
2943 2944 2947 2950 2952 2955 2956 2957 2957 2957 2957 2958 2959 2960 2962 2962 2963 2964 2965 2965 2966 2967 2968 2970 2971 2972 2973 2974 2975 2977 2978 2980 2981 2982 2983 2983 2984 2984 2985 2986 2988 2989 2991 2993 2994 2996 2997 2998 3000 3001 3002 3003 3005 3006 3007 3007 3008 3009 3010 3011 3012 3012 3013 3014 3015 3015 3015 3015 3016
2941 2942 2944 2947 2950 2952 2953 2954 2955 2956 2956 2957 2958 2959 2960 2962 2962 2963 2964 2964 2964 2965 2966 2968 2969 2970 2971 2972 2974 2975 2977 2978 2979 2980 2980 2981 2982 2982 2983 2984 2986 2988 2989 2991 2993 2994 2996 2997 2999 3000 3001 3002 3003 3004 3005 3006 3007 3008 3009 3010 3010 3011 3012 3012 3013 3013 3014 3014 3014
2938 2940 2942 2944 2947 2948 2950 2951 2952 2953 2954 2955 2956 2957 2958 2960 2961 2962 2962 2962 2963 2964 2965 2967 2968 2969 2970 2971 2972 2974 2975 2977 2977 2978 2978 2979 2980 2981 2982 2983 2985 2986 2988 2990 2992 2993 2995 2996 2997 2999 3000 3001 3002 3003 3004 3005 3006 3007 3007 3008 3009 3010 3011 3011 3012 3012 3012 3012 3012
2935 2936 2938 2941 2943 2944 2946 2947 2949 2950 2952 2953 2954 2955 2956 2957 2959 2960 2961 2961 2961 2962 2963 2965 2967 2968 2969 2970 2971 2973 2974 2975 2976 2976 2977 2977 2978 2979 2981 2982 2983 2985 2987 2988 2990 2992 2993 2995 2997 2998 2999 3000 3001 3002 3003 3004 3005 3005 3006 3007 3008 3008 3009 3010 3010 3010 3010 3010 3010
2932 2933 2935 2937 2938 2940 2941 2942 2944 2946 2948 2950 2951 2952 2954 2955 2957 2958 2959 2959 2960 2961 2962 2964 2966 2967 2968 2969 2971 2972 2972 2973 2974 2974 2975 2976 2977 2978 2979 2980 2982 2983 2985 2987 2989 2990 2992 2994 2995 2997 2998 2999 3000 3001 3002 3003 3003 3004 3005 3006 3006 3007 3007 3008 3008 3008 3008 3008 3008
2928 2929 2931 2933 2934 2936 2937 2938 2940 2942 2944 2947 2948 2950 2951 2953 2955 2956 2957 2957 2958 2959 2961 2963 2965 2966 2967 2968 2969 2970 2971 2972 2972 2972 2973 2974 2975 2976 2977 2979 2980 2982 2984 2986 2987 2989 2991 2992 2994 2995 2997 2998 2999 3000 3001 3002 3002 3003 3003 3004 3004 3005 3005 3006 3006 3006 3006 3006 3006
2923 2924 2926 2927 2929 2931 2932 2933 2935 2937 2940 2943 2945 2947 2949 2951 2952 2953 2954 2955 2956 2958 2959 2961 2962 2964 2965 2966 2967 2968 2969 2970 2970 2971 2971 2972 2973 2975 2976 2977 2979 2981 2983 2985 2987 2988 2990 2991 2993 2994 2996 2997 2998 2999 3000 3001 3001 3002 3002 3002 3002 3003 3003 3004 3004 3004 3004 3003 3003
2917 2918 2919 2921 2923 2926 2927 2928 2930 2932 2936 2939 2942 2944 2946 2948 2949 2951 2952 2953 2954 2956 2957 2959 2960 2961 2962 2964 2965 2966 2967 2967 2968 2969 2970 2971 2972 2973 2975 2976 2978 2980 2982 2984 2985 2987 2988 2990 2991 2993 2994 2996 2997 2998 2998 2999 3000 3000 3000 3001 3001 3001 3001 3002 3002 3002 3002 3001 3001
2913 2913 2915 2917 2918 2920 2922 2924 2926 2928 2932 2935 2938 2940 2942 2944 2947 2948 2950 2951 2952 2953 2954 2956 2957 2958 2959 2961 2963 2964 2965 2966 2966 2967 2968 2969 2970 2972 2973 2975 2977 2979 2981 2983 2984 2986 2987 2988 2990 2991 2993 2994 2995 2996 2997 2997 2998 2998 2998 2998 2999 2999 2999 2999 2999 2999 2999 2999 2999
2911 2912 2914 2915 2916 2917 2918 2921 2923 2925 2928 2932 2934 2937 2938 2941 2943 2945 2947 2948 2950 2951 2951 2952 2953 2955 2957 2958 2960 2962 2963 2963 2964 2965 2966 2967 2969 2970 2972 2974 2976 2978 2980 2982 2983 2984 2985 2987 2988 2990 2991 2992 2993 2994 2995 2995 2996 2996 2997 2997 2997 2997 2997 2997 2997 2997 2997 2997 2997
2909 2911 2912 2914 2914 2915 2917 2919 2921 2923 2926 2928 2931 2933 2935 2937 2939 2941 2943 2945 2947 2947 2948 2949 2951 2952 2954 2956 2958 2959 2961 2962 2962 2963 2964 2966 2967 2969 2971 2973 2975 2976 2978 2979 2981 2982 2983 2985 2986 2988 2989 2990 2992 2992 2993 2994 2994 2994 2994 2994 2995 2995 2995 2995 2995 2995 2995 2995 2995
2907 2908 2909 2911 2912 2914 2915 2917 2919 2921 2923 2925 2927 2929 2932 2933 2936 2939 2941 2942 2944 2945 2946 2947 2948 2950 2952 2954 2956 2957 2958 2959 2960 2962 2963 2964 2966 2967 2969 2971 2973 2975 2976 2977 2979 2980 2982 2983 2985 2986 2987 2988 2989 2990 2991 2992 2992 2992 2992 2992 2993 2993 2993 2993 2993 2993 2993 2993 2993
2904 2905 2907 2908 2910 2911 2913 2915 2917 2919 2920 2922 2924 2927 2929 2931 2934 2936 2938 2940 2942 2943 2944 2945 2946 2948 2950 2952 2954 2955 2956 2957 2958 2960 2961 2963 2964 2966 2967 2969 2971 2973 2974 2976 2977 2979 2980 2982 2983 2984 2985 2987 2987 2988 2989 2990 2990 2990 2991 2991 2991 2991 2992 2992 2992 2992 2991 2991 2991
2902 2903 2905 2906 2907 2909 2910 2912 2914 2916 2917 2919 2922 2924 2927 2929 2932 2934 2937 2938 2940 2941 2942 2943 2944 2946 2948 2950 2951 2952 2954 2955 2956 2957 2959 2961 2962 2964 2966 2967 2970 2971 2972 2974 2976 2977 2978 2980 2981 2982 2983 2985 2986 2986 2987 2988 2988 2988 2989 2989 2989 2989 2990 2990 2990 2990 2989 2989 2989
2900 2901 2902 2904 2905 2906 2907 2909 2911 2912 2914 2917 2919 2922 2925 2927 2929 2932 2934 2936 2937 2939 2940 2941 2943 2944 2945 2947 2948 2950 2951 2952 2954 2956 2957 2959 2961 2962 2964 2966 2968 2970 2971 2972 2974 2976 2977 2978 2979 2981 2982 2983 2983 2984 2985 2986 2986 2987 2987 2987 2987 2988 2988 2988 2988 2988 2987 2987 2987
2898 2899 2900 2902 2903 2904 2905 2906 2907 2909 2912 2914 2917 2920 2922 2925 2927 2929 2932 2934 2936 2937 2939 2940 2941 2942 2943 2944 2946 2948 2949 2951 2952 2954 2956 2957 2959 2961 2962 2964 2967 2968 2969 2971 2972 2974 2975 2977 2977 2979 2980 2981 2982 2982 2983 2984 2984 2985 2985 2985 2986 2986 2986 2986 2986 2986 2985 2985 2984
2896 2897 2898 2899 2901 2902 2902 2903 2905 2907 2909 2912 2915 2917 2920 2922 2925 2927 2930 2932 2934 2936 2937 2938 2939 2940 2941 2942 2944 2946 2947 2949 2951 2952 2954 2956 2957 2959 2961 2963 2965 2966 2968 2969 2971 2972 2974 2975 2976 2977 2978 2979 2979 2980 2981 2982 2982 2982 2983 2983 2983 2984 2984 2984 2984 2983 2983 2983 2982
2892 2893 2895 2896 2898 2899 2900 2901 2903 2905 2907 2909 2912 2915 2917 2920 2922 2925 2928 2930 2932 2933 2935 2936 2937 2937 2938 2939 2942 2944 2945 2947 2949 2950 2952 2953 2955 2957 2959 2961 2963 2965 2966 2968 2969 2971 2972 2973 2974 2975 2976 2977 2977 2978 2979 2979 2980 2980 2981 2981 2981 2982 2982 2982 2982 2982 2981 2980 2980
2888 2888 2890 2892 2894 2896 2898 2899 2901 2903 2905 2907 2910 2912 2915 2917 2920 2923 2925 2927 2929 2930 2932 2933 2934 2934 2935 2937 2939 2942 2944 2945 2947 2948 2950 2952 2953 2955 2957 2960 2962 2963 2965 2966 2968 2969 2970 2971 2972 2973 2974 2975 2976 2976 2977 2977 2978 2978 2979 2979 2979 2980 2980 2980 2980 2979 2979 2978 2978
2884 2884 2886 2888 2891 2894 2896 2898 2899 2901 2903 2905 2907 2910 2912 2915 2918 2920 2922 2924 2926 2927 2929 2930 2931 2932 2933 2935 2937 2940 2942 2944 2945 2947 2948 2950 2952 2954 2956 2958 2960 2962 2963 2965 2966 2967 2968 2969 2970 2971 2972 2973 2974 2974 2975 2975 2976 2976 2977 2977 2977 2977 2978 2978 2977 2977 2977 2976 2976
2882 2883 2884 2887 2889 2892 2895 2896 2898 2899 2901 2903 2905 2907 2910 2912 2915 2917 2919 2921 2923 2925 2927 2928 2929 2930 2932 2933 2936 2938 2940 2942 2943 2945 2947 2948 2951 2953 2955 2957 2959 2961 2962 2963 2965 2966 2967 2967 2968 2969 2970 2971 2972 2972 2973 2973 2974 2974 2974 2975 2975 2975 2976 2976 2975 2975 2975 2974 2974
2882 2883 2885 2887 2888 2891 2893 2895 2896 2898 2900 2902 2903 2905 2907 2911 2913 2915 2917 2919 2921 2923 2925 2927 2928 2929 2929 2931 2933 2935 2937 2940 2942 2943 2945 2947 2949 2952 2954 2956 2957 2959 2960 2962 2963 2964 2965 2966 2966 2967 2968 2969 2970 2970 2971 2971 2972 2972 2972 2973 2973 2973 2973 2973 2973 2973 2973 2972 2972
2882 2883 2885 2886 2887 2889 2891 2892 2894 2896 2897 2899 2901 2903 2906 2908 2911 2913 2914 2916 2918 2920 2922 2924 2926 2926 2927 2928 2931 2933 2935 2937 2940 2942 2943 2945 2948 2950 2952 2954 2956 2957 2959 2960 2961 2962 2963 2963 2964 2965 2966 2967 2968 2968 2969 2969 2969 2970 2970 2971 2971 2971 2971 2971 2971 2971 2971 2970 2969